Tracking 19817 objects as of 18-Aug-2019
HD Live streaming from Space Station
objects crossing your sky now

COSMOS 2251 DEB

Track COSMOS 2251 DEB now!
10-day predictions


NORAD ID: 33757
Int'l Code: 1993-036E
Perigee: 782.2 km
Apogee: 802.0 km
Inclination: 74.0 °
Period: 100.6 minutes
Semi major axis: 7163 km
RCS: 0.1374 m2 (medium)
Launch date: June 16, 1993
Source: Commonwealth of Independent States (former USSR) (CIS)
Launch site: PLESETSK MISSILE AND SPACE COMPLEX (PKMTR)

Note: This is SATELLITE DEBRIS
aabbcc
Your satellite tracking list
Your tracking list is empty




NASA's NSSDC Master Catalog

Two Line Element Set (TLE):
1 33757U 93036E   19229.12893856 -.00000026  00000-0 -15330-6 0  9999
2 33757  74.0351 217.2008 0013795  73.2629 357.6533 14.32018699549374
Source of the keplerian elements: AFSPC